Houghton Lake, MI

3:41 PM EST on February 12, 2016 (GMT -0500)
Roscommon County

Weather History for KHTL - August, 2014

Change the Weather History Date:

Saturday, August 23, 2014

  Actual Average Record
Temperature  
Mean Temperature 69 °F 64 °F  
Max Temperature 81 °F 76 °F 97 °F (1922)
Min Temperature 56 °F 52 °F 31 °F (1951)
Degree Days  
Heating Degree Days 0 3  
Month to date heating degree days 33 52  
Since 1 June heating degree days 211 223  
Since 1 July heating degree days 137 99  
Cooling Degree Days 4 2  
Month to date cooling degree days 35 62  
Year to date cooling degree days 170 249  
Since 1 June cooling degree days 155 233  
Growing Degree Days 18 (Base 50)    
Moisture  
Dew Point 60 °F    
Average Humidity 79    
Maximum Humidity 100    
Minimum Humidity 58    
Precipitation  
Precipitation 0.00 in 0.11 in 2.50 in (2008)
Month to date precipitation 1.72 2.58  
Year to date precipitation 19.49 18.30  
Sea Level Pressure  
Sea Level Pressure 30.08 in    
Wind  
Wind Speed 6 mph (East)    
Max Wind Speed 15 mph    
Max Gust Speed 19 mph    
Visibility 7 miles    
Events Fog    
T = Trace of Precipitation, MM = Missing Value Source: NWS Daily Summary

Daily Weather History Graph

Daily Weather History Graph

Search for Another Location

Airport or City:

Trip Planner

Search our weather history database for the weather conditions in past years. The results will help you decide how hot, cold, wet, or windy it might be!

Date:

Astronomy

Aug. 23, 2014 Rise Set
Actual Time 6:51 AM EDT 8:30 PM EDT
Civil Twilight 6:20 AM EDT 9:01 PM EDT
Nautical Twilight 5:42 AM EDT 9:38 PM EDT
Astronomical Twilight 5:02 AM EDT 10:18 PM EDT
Moon 5:04 AM EDT (8/23) 7:15 PM EDT (8/23)
Length of Visible Light 14h 40m
Length of Day
13h 39m
Waning Crescent, 3% of the Moon is Illuminated
Aug 23
Waning Crescent
Aug 25
New
Sep 2
First Quarter
Sep 8
Full
Sep 15
Last Quarter

Hourly Weather History & Observations

Time (EDT) Temp. Dew Point Humidity Pressure Visibility Wind Dir Wind Speed Gust Speed Precip Events Conditions
12:53 AM 66.0 °F 62.1 °F 87% 30.07 in 10.0 mi Calm Calm - N/A   Overcast
1:53 AM 64.9 °F 62.1 °F 90% 30.06 in 10.0 mi Calm Calm - N/A   Overcast
2:53 AM 62.1 °F 61.0 °F 96% 30.05 in 10.0 mi Calm Calm - N/A   Partly Cloudy
3:53 AM 60.1 °F 59.0 °F 96% 30.07 in 10.0 mi Calm Calm - N/A   Clear
4:30 AM 59.0 °F 57.9 °F 96% 30.07 in 1.8 mi Calm Calm - N/A   Clear
4:40 AM 59.0 °F 57.9 °F 96% 30.07 in 3.0 mi NE 4.6 mph - N/A   Clear
5:13 AM 57.9 °F 57.9 °F 100% 30.07 in 1.8 mi Calm Calm - N/A   Clear
5:19 AM 57.9 °F 57.9 °F 100% 30.07 in 1.0 mi Calm Calm - N/A   Clear
5:33 AM 59.0 °F 57.9 °F 96% 30.07 in 0.8 mi Calm Calm - N/A   Mist
5:53 AM 57.0 °F 55.9 °F 96% 30.06 in 0.5 mi ENE 4.6 mph - N/A Fog Fog
6:04 AM 55.9 °F 55.9 °F 100% 30.08 in 1.2 mi Calm Calm - N/A   Mostly Cloudy
6:08 AM 57.0 °F 57.0 °F 100% 30.08 in 3.0 mi Calm Calm - N/A   Mostly Cloudy
6:20 AM 57.0 °F 57.0 °F 100% 30.09 in 4.0 mi NE 3.5 mph - N/A   Scattered Clouds
6:33 AM 57.0 °F 57.0 °F 100% 30.09 in 1.8 mi ENE 4.6 mph - N/A   Partly Cloudy
6:40 AM 55.9 °F 55.9 °F 100% 30.09 in 3.0 mi ENE 4.6 mph - N/A   Partly Cloudy
6:46 AM 55.9 °F 55.9 °F 100% 30.09 in 1.8 mi ENE 3.5 mph - N/A   Partly Cloudy
6:50 AM 55.4 °F 55.4 °F 100% 30.09 in 1.0 mi Calm Calm - N/A   Mist
7:00 AM 57.2 °F 55.4 °F 94% 30.09 in 0.8 mi Calm Calm - N/A   Clear
7:16 AM 57.0 °F 57.0 °F 100% 30.09 in 0.5 mi ENE 3.5 mph - N/A Fog Fog
7:28 AM 57.0 °F 57.0 °F 100% 30.09 in 1.5 mi ENE 4.6 mph - N/A   Scattered Clouds
7:30 AM 57.0 °F 57.0 °F 100% 30.09 in 4.0 mi ENE 4.6 mph - N/A   Scattered Clouds
7:53 AM 61.0 °F 60.1 °F 97% 30.08 in 8.0 mi ENE 5.8 mph - N/A   Clear
8:53 AM 66.9 °F 63.0 °F 87% 30.08 in 10.0 mi ENE 6.9 mph - N/A   Clear
9:53 AM 71.1 °F 63.0 °F 75% 30.08 in 10.0 mi East 10.4 mph - N/A   Clear
10:53 AM 73.0 °F 61.0 °F 66% 30.10 in 10.0 mi East 8.1 mph - N/A   Clear
11:53 AM 75.0 °F 62.1 °F 64% 30.10 in 10.0 mi East 6.9 mph 17.3 mph N/A   Clear
12:43 PM 78.1 °F 63.0 °F 60% 30.10 in 10.0 mi ESE 8.1 mph - N/A   Mostly Cloudy
12:53 PM 78.1 °F 63.0 °F 60% 30.09 in 10.0 mi East 8.1 mph - N/A   Scattered Clouds
1:53 PM 78.1 °F 63.0 °F 60% 30.09 in 10.0 mi Variable 5.8 mph - N/A   Partly Cloudy
2:53 PM 78.1 °F 62.1 °F 58% 30.09 in 10.0 mi East 8.1 mph - N/A   Scattered Clouds
3:53 PM 77.0 °F 62.1 °F 60% 30.09 in 10.0 mi SE 9.2 mph - N/A   Mostly Cloudy
4:53 PM 78.8 °F 62.6 °F 57% 30.09 in 10.0 mi East 10.4 mph - N/A   Partly Cloudy
5:53 PM 79.0 °F 63.0 °F 58% 30.08 in 10.0 mi East 12.7 mph - N/A   Clear
6:53 PM 75.0 °F 64.0 °F 69% 30.07 in 10.0 mi ESE 8.1 mph - N/A   Clear
7:53 PM 72.0 °F 64.0 °F 76% 30.08 in 10.0 mi ESE 9.2 mph - N/A   Clear
8:53 PM 68.0 °F 64.0 °F 87% 30.08 in 10.0 mi East 6.9 mph - N/A   Clear
9:53 PM 66.0 °F 63.0 °F 90% 30.10 in 10.0 mi East 6.9 mph - N/A   Clear
10:53 PM 64.9 °F 63.0 °F 93% 30.11 in 10.0 mi East 9.2 mph - N/A   Clear
11:53 PM 63.0 °F 62.1 °F 97% 30.12 in 10.0 mi East 5.8 mph - N/A   Clear